Year,Month,Day,Hour,Minute,Value (Times are PST for temperature in C)
2005,07,27,00,00,16.80
2005,07,27,00,01,16.80
2005,07,27,00,02,16.80
2005,07,27,00,03,16.80
2005,07,27,00,04,16.80
2005,07,27,00,05,16.80
2005,07,27,00,06,16.80
2005,07,27,00,07,16.70
2005,07,27,00,08,16.80
2005,07,27,00,09,16.80
2005,07,27,00,10,16.80
2005,07,27,00,11,16.80
2005,07,27,00,12,16.80
2005,07,27,00,13,16.80
2005,07,27,00,14,16.80
2005,07,27,00,15,16.80
2005,07,27,00,16,16.80
2005,07,27,00,17,16.80
2005,07,27,00,18,16.80
2005,07,27,00,19,16.80
2005,07,27,00,20,16.80
2005,07,27,00,21,16.80
2005,07,27,00,22,16.70
2005,07,27,00,23,16.70
2005,07,27,00,24,16.70
2005,07,27,00,25,16.70
2005,07,27,00,26,16.70
2005,07,27,00,27,16.70
2005,07,27,00,28,16.70
2005,07,27,00,29,16.70
2005,07,27,00,30,16.70
2005,07,27,00,31,16.70
2005,07,27,00,32,16.70
2005,07,27,00,33,16.70
2005,07,27,00,34,16.70
2005,07,27,00,35,16.70
2005,07,27,00,36,16.70
2005,07,27,00,37,16.70
2005,07,27,00,38,16.60
2005,07,27,00,39,16.60
2005,07,27,00,40,16.60
2005,07,27,00,41,16.60
2005,07,27,00,42,16.60
2005,07,27,00,43,16.60
2005,07,27,00,44,16.50
2005,07,27,00,45,16.40
2005,07,27,00,46,16.40
2005,07,27,00,47,16.40
2005,07,27,00,48,16.40
2005,07,27,00,49,16.40
2005,07,27,00,50,16.40
2005,07,27,00,51,16.40
2005,07,27,00,52,16.30
2005,07,27,00,53,16.30
2005,07,27,00,54,16.30
2005,07,27,00,55,16.30
2005,07,27,00,56,16.20
2005,07,27,00,57,16.20
2005,07,27,00,58,16.20
2005,07,27,00,59,16.20
2005,07,27,01,00,16.20
2005,07,27,01,01,16.20
2005,07,27,01,02,16.20
2005,07,27,01,03,16.20
2005,07,27,01,04,16.20
2005,07,27,01,05,16.20
2005,07,27,01,06,16.20
2005,07,27,01,07,16.20
2005,07,27,01,08,16.20
2005,07,27,01,09,16.20
2005,07,27,01,10,16.20
2005,07,27,01,11,16.20
2005,07,27,01,12,16.20
2005,07,27,01,13,16.20
2005,07,27,01,14,16.10
2005,07,27,01,15,16.10
2005,07,27,01,16,16.10
2005,07,27,01,17,16.10
2005,07,27,01,18,16.10
2005,07,27,01,19,16.10
2005,07,27,01,20,16.00
2005,07,27,01,21,15.90
2005,07,27,01,22,15.90
2005,07,27,01,23,15.90
2005,07,27,01,24,15.90
2005,07,27,01,25,15.80
2005,07,27,01,26,15.80
2005,07,27,01,27,15.80
2005,07,27,01,28,15.80
2005,07,27,01,29,15.80
2005,07,27,01,30,15.80
2005,07,27,01,31,15.80
2005,07,27,01,32,15.80
2005,07,27,01,33,15.80
2005,07,27,01,34,15.80
2005,07,27,01,35,15.70
2005,07,27,01,36,15.70
2005,07,27,01,37,15.70
2005,07,27,01,38,15.70
2005,07,27,01,39,15.70
2005,07,27,01,40,15.60
2005,07,27,01,41,15.60
2005,07,27,01,42,15.60
2005,07,27,01,43,15.60
2005,07,27,01,44,15.50
2005,07,27,01,45,15.50
2005,07,27,01,46,15.50
2005,07,27,01,47,15.50
2005,07,27,01,48,15.50
2005,07,27,01,49,15.40
2005,07,27,01,50,15.40
2005,07,27,01,51,15.40
2005,07,27,01,52,15.40
2005,07,27,01,53,15.40
2005,07,27,01,54,15.30
2005,07,27,01,55,15.30
2005,07,27,01,56,15.30
2005,07,27,01,57,15.30
2005,07,27,01,58,15.30
2005,07,27,01,59,15.30
2005,07,27,02,00,15.30
2005,07,27,02,01,15.30
2005,07,27,02,02,15.30
2005,07,27,02,03,15.30
2005,07,27,02,04,15.30
2005,07,27,02,05,15.30
2005,07,27,02,06,15.30
2005,07,27,02,07,15.30
2005,07,27,02,08,15.30
2005,07,27,02,09,15.20
2005,07,27,02,10,15.20
2005,07,27,02,11,15.20
2005,07,27,02,12,15.20
2005,07,27,02,13,15.20
2005,07,27,02,14,15.20
2005,07,27,02,15,15.20
2005,07,27,02,16,15.10
2005,07,27,02,17,15.10
2005,07,27,02,18,15.10
2005,07,27,02,19,15.10
2005,07,27,02,20,15.10
2005,07,27,02,21,15.10
2005,07,27,02,22,15.10
2005,07,27,02,23,15.10
2005,07,27,02,24,15.00
2005,07,27,02,25,15.00
2005,07,27,02,26,15.00
2005,07,27,02,27,15.00
2005,07,27,02,28,15.00
2005,07,27,02,29,14.90
2005,07,27,02,30,14.90
2005,07,27,02,31,14.90
2005,07,27,02,32,14.90
2005,07,27,02,33,14.90
2005,07,27,02,34,14.80
2005,07,27,02,35,14.80
2005,07,27,02,36,14.80
2005,07,27,02,37,14.80
2005,07,27,02,38,14.80
2005,07,27,02,39,14.80
2005,07,27,02,40,14.80
2005,07,27,02,41,14.80
2005,07,27,02,42,14.80
2005,07,27,02,43,14.80
2005,07,27,02,44,14.70
2005,07,27,02,45,14.70
2005,07,27,02,46,14.70
2005,07,27,02,47,14.70
2005,07,27,02,48,14.70
2005,07,27,02,49,14.70
2005,07,27,02,50,14.70
2005,07,27,02,51,14.70
2005,07,27,02,52,14.70
2005,07,27,02,53,14.70
2005,07,27,02,54,14.60
2005,07,27,02,55,14.60
2005,07,27,02,56,14.60
2005,07,27,02,57,14.60
2005,07,27,02,58,14.60
2005,07,27,02,59,14.60
2005,07,27,03,00,14.60
2005,07,27,03,01,14.50
2005,07,27,03,02,14.50
2005,07,27,03,03,14.50
2005,07,27,03,04,14.50
2005,07,27,03,05,14.50
2005,07,27,03,06,14.50
2005,07,27,03,07,14.40
2005,07,27,03,08,14.40
2005,07,27,03,09,14.40
2005,07,27,03,10,14.40
2005,07,27,03,11,14.40
2005,07,27,03,12,14.30
2005,07,27,03,13,14.30
2005,07,27,03,14,14.30
2005,07,27,03,15,14.20
2005,07,27,03,16,14.20
2005,07,27,03,17,14.20
2005,07,27,03,18,14.20
2005,07,27,03,19,14.20
2005,07,27,03,20,14.20
2005,07,27,03,21,14.20
2005,07,27,03,22,14.20
2005,07,27,03,23,14.20
2005,07,27,03,24,14.20
2005,07,27,03,25,14.20
2005,07,27,03,26,14.20
2005,07,27,03,27,14.20
2005,07,27,03,28,14.20
2005,07,27,03,29,14.20
2005,07,27,03,30,14.20
2005,07,27,03,31,14.20
2005,07,27,03,32,14.20
2005,07,27,03,33,14.20
2005,07,27,03,34,14.20
2005,07,27,03,35,14.20
2005,07,27,03,36,14.20
2005,07,27,03,37,14.10
2005,07,27,03,38,14.10
2005,07,27,03,39,14.10
2005,07,27,03,40,14.10
2005,07,27,03,41,14.00
2005,07,27,03,42,14.00
2005,07,27,03,43,14.00
2005,07,27,03,44,14.00
2005,07,27,03,45,14.00
2005,07,27,03,46,14.00
2005,07,27,03,47,14.00
2005,07,27,03,48,14.00
2005,07,27,03,49,14.00
2005,07,27,03,50,14.00
2005,07,27,03,51,14.00
2005,07,27,03,52,14.00
2005,07,27,03,53,14.00
2005,07,27,03,54,14.00
2005,07,27,03,55,14.00
2005,07,27,03,56,14.00
2005,07,27,03,57,14.00
2005,07,27,03,58,14.00
2005,07,27,03,59,14.00
2005,07,27,04,00,14.00
2005,07,27,04,01,14.00
2005,07,27,04,02,14.00
2005,07,27,04,03,14.00
2005,07,27,04,04,14.00
2005,07,27,04,05,14.00
2005,07,27,04,06,14.00
2005,07,27,04,07,14.00
2005,07,27,04,08,14.00
2005,07,27,04,09,14.00
2005,07,27,04,10,14.00
2005,07,27,04,11,14.00
2005,07,27,04,12,14.00
2005,07,27,04,13,14.00
2005,07,27,04,14,14.00
2005,07,27,04,15,14.00
2005,07,27,04,16,14.00
2005,07,27,04,17,14.00
2005,07,27,04,18,14.00
2005,07,27,04,19,14.00
2005,07,27,04,20,14.00
2005,07,27,04,21,14.00
2005,07,27,04,22,14.00
2005,07,27,04,23,14.00
2005,07,27,04,24,14.00
2005,07,27,04,25,14.00
2005,07,27,04,26,14.00
2005,07,27,04,27,14.00
2005,07,27,04,28,14.00
2005,07,27,04,29,14.00
2005,07,27,04,30,14.00
2005,07,27,04,31,14.00
2005,07,27,04,32,14.00
2005,07,27,04,33,14.00
2005,07,27,04,34,14.00
2005,07,27,04,35,14.00
2005,07,27,04,36,14.00
2005,07,27,04,37,14.00
2005,07,27,04,38,14.00
2005,07,27,04,39,14.00
2005,07,27,04,40,14.00
2005,07,27,04,41,14.00
2005,07,27,04,42,14.00
2005,07,27,04,43,14.00
2005,07,27,04,44,14.00
2005,07,27,04,45,14.00
2005,07,27,04,46,14.00
2005,07,27,04,47,14.00
2005,07,27,04,48,14.00
2005,07,27,04,49,14.00
2005,07,27,04,50,14.00
2005,07,27,04,51,14.00
2005,07,27,04,52,14.00
2005,07,27,04,53,14.00
2005,07,27,04,54,13.90
2005,07,27,04,55,13.90
2005,07,27,04,56,13.90
2005,07,27,04,57,13.90
2005,07,27,04,58,13.90
2005,07,27,04,59,13.90
2005,07,27,05,00,13.90
2005,07,27,05,01,13.90
2005,07,27,05,02,13.80
2005,07,27,05,03,13.80
2005,07,27,05,04,13.80
2005,07,27,05,05,13.80
2005,07,27,05,06,13.80
2005,07,27,05,07,13.80
2005,07,27,05,08,13.80
2005,07,27,05,09,13.80
2005,07,27,05,10,13.80
2005,07,27,05,11,13.70
2005,07,27,05,12,13.70
2005,07,27,05,13,13.70
2005,07,27,05,14,13.70
2005,07,27,05,15,13.70
2005,07,27,05,16,13.70
2005,07,27,05,17,13.70
2005,07,27,05,18,13.70
2005,07,27,05,19,13.70
2005,07,27,05,20,13.70
2005,07,27,05,21,13.70
2005,07,27,05,22,13.70
2005,07,27,05,23,13.70
2005,07,27,05,24,13.70
2005,07,27,05,25,13.70
2005,07,27,05,26,13.60
2005,07,27,05,27,13.60
2005,07,27,05,28,13.60
2005,07,27,05,29,13.50
2005,07,27,05,30,13.50
2005,07,27,05,31,13.50
2005,07,27,05,32,13.50
2005,07,27,05,33,13.50
2005,07,27,05,34,13.40
2005,07,27,05,35,13.40
2005,07,27,05,36,13.40
2005,07,27,05,37,13.40
2005,07,27,05,38,13.40
2005,07,27,05,39,13.30
2005,07,27,05,40,13.30
2005,07,27,05,41,13.30
2005,07,27,05,42,13.30
2005,07,27,05,43,13.30
2005,07,27,05,44,13.30
2005,07,27,05,45,13.30
2005,07,27,05,46,13.30
2005,07,27,05,47,13.30
2005,07,27,05,48,13.30
2005,07,27,05,49,13.30
2005,07,27,05,50,13.30
2005,07,27,05,51,13.30
2005,07,27,05,52,13.30
2005,07,27,05,53,13.30
2005,07,27,05,54,13.30
2005,07,27,05,55,13.30
2005,07,27,05,56,13.30
2005,07,27,05,57,13.30
2005,07,27,05,58,13.30
2005,07,27,05,59,13.30
2005,07,27,06,00,13.30
2005,07,27,06,01,13.30
2005,07,27,06,02,13.30
2005,07,27,06,03,13.30
2005,07,27,06,04,13.30
2005,07,27,06,05,13.30
2005,07,27,06,06,13.30
2005,07,27,06,07,13.30
2005,07,27,06,08,13.40
2005,07,27,06,09,13.40
2005,07,27,06,10,13.50
2005,07,27,06,11,13.50
2005,07,27,06,12,13.50
2005,07,27,06,13,13.60
2005,07,27,06,14,13.60
2005,07,27,06,15,13.70
2005,07,27,06,16,13.70
2005,07,27,06,17,13.70
2005,07,27,06,18,13.90
2005,07,27,06,19,13.90
2005,07,27,06,20,14.00
2005,07,27,06,21,14.10
2005,07,27,06,22,14.20
2005,07,27,06,23,14.20
2005,07,27,06,24,14.20
2005,07,27,06,25,14.20
2005,07,27,06,26,14.30
2005,07,27,06,27,14.30
2005,07,27,06,28,14.40
2005,07,27,06,29,14.40
2005,07,27,06,30,14.40
2005,07,27,06,31,14.40
2005,07,27,06,32,14.40
2005,07,27,06,33,14.50
2005,07,27,06,34,14.50
2005,07,27,06,35,14.60
2005,07,27,06,36,14.60
2005,07,27,06,37,14.70
2005,07,27,06,38,14.90
2005,07,27,06,39,15.00
2005,07,27,06,40,15.10
2005,07,27,06,41,15.10
2005,07,27,06,42,15.20
2005,07,27,06,43,15.20
2005,07,27,06,44,15.30
2005,07,27,06,45,15.30
2005,07,27,06,46,15.50
2005,07,27,06,47,15.60
2005,07,27,06,48,15.70
2005,07,27,06,49,15.80
2005,07,27,06,50,15.90
2005,07,27,06,51,16.00
2005,07,27,06,52,16.10
2005,07,27,06,53,16.20
2005,07,27,06,54,16.30
2005,07,27,06,55,16.40
2005,07,27,06,56,16.50
2005,07,27,06,57,16.60
2005,07,27,06,58,16.70
2005,07,27,06,59,16.80
2005,07,27,07,00,16.80
2005,07,27,07,01,16.90
2005,07,27,07,02,17.00
2005,07,27,07,03,17.10
2005,07,27,07,04,17.20
2005,07,27,07,05,17.20
2005,07,27,07,06,17.30
2005,07,27,07,07,17.30
2005,07,27,07,08,17.30
2005,07,27,07,09,17.30
2005,07,27,07,10,17.30
2005,07,27,07,11,17.40
2005,07,27,07,12,17.40
2005,07,27,07,13,17.50
2005,07,27,07,14,17.60
2005,07,27,07,15,17.60
2005,07,27,07,16,17.70
2005,07,27,07,17,17.70
2005,07,27,07,18,17.80
2005,07,27,07,19,18.00
2005,07,27,07,20,18.10
2005,07,27,07,21,18.20
2005,07,27,07,22,18.30
2005,07,27,07,23,18.50
2005,07,27,07,24,18.50
2005,07,27,07,25,18.60
2005,07,27,07,26,18.70
2005,07,27,07,27,18.80
2005,07,27,07,28,18.80
2005,07,27,07,29,18.90
2005,07,27,07,30,18.90
2005,07,27,07,31,18.90
2005,07,27,07,32,18.90
2005,07,27,07,33,18.90
2005,07,27,07,34,18.90
2005,07,27,07,35,18.90
2005,07,27,07,36,18.90
2005,07,27,07,37,18.90
2005,07,27,07,38,18.90
2005,07,27,07,39,19.00
2005,07,27,07,40,19.10
2005,07,27,07,41,19.10
2005,07,27,07,42,19.20
2005,07,27,07,43,19.20
2005,07,27,07,44,19.20
2005,07,27,07,45,19.30
2005,07,27,07,46,19.40
2005,07,27,07,47,19.40
2005,07,27,07,48,19.40
2005,07,27,07,49,19.40
2005,07,27,07,50,19.40
2005,07,27,07,51,19.50
2005,07,27,07,52,19.50
2005,07,27,07,53,19.60
2005,07,27,07,54,19.60
2005,07,27,07,55,19.80
2005,07,27,07,56,19.90
2005,07,27,07,57,20.00
2005,07,27,07,58,20.10
2005,07,27,07,59,20.20
2005,07,27,08,00,20.20
2005,07,27,08,01,20.20
2005,07,27,08,02,20.30
2005,07,27,08,03,20.40
2005,07,27,08,04,20.50
2005,07,27,08,05,20.50
2005,07,27,08,06,20.50
2005,07,27,08,07,20.60
2005,07,27,08,08,20.60
2005,07,27,08,09,20.70
2005,07,27,08,10,20.70
2005,07,27,08,11,20.70
2005,07,27,08,12,20.80
2005,07,27,08,13,20.80
2005,07,27,08,14,20.80
2005,07,27,08,15,20.80
2005,07,27,08,16,20.80
2005,07,27,08,17,20.80
2005,07,27,08,18,20.80
2005,07,27,08,19,20.80
2005,07,27,08,20,20.80
2005,07,27,08,21,20.90
2005,07,27,08,22,20.90
2005,07,27,08,23,20.90
2005,07,27,08,24,20.90
2005,07,27,08,25,21.00
2005,07,27,08,26,21.00
2005,07,27,08,27,21.00
2005,07,27,08,28,21.00
2005,07,27,08,29,21.10
2005,07,27,08,30,21.10
2005,07,27,08,31,21.10
2005,07,27,08,32,21.10
2005,07,27,08,33,21.10
2005,07,27,08,34,21.10
2005,07,27,08,35,21.20
2005,07,27,08,36,21.20
2005,07,27,08,37,21.20
2005,07,27,08,38,21.20
2005,07,27,08,39,21.30
2005,07,27,08,40,21.30
2005,07,27,08,41,21.30
2005,07,27,08,42,21.30
2005,07,27,08,43,21.30
2005,07,27,08,44,21.30
2005,07,27,08,45,21.40
2005,07,27,08,46,21.40
2005,07,27,08,47,21.50
2005,07,27,08,48,21.60
2005,07,27,08,49,21.60
2005,07,27,08,50,21.60
2005,07,27,08,51,21.50
2005,07,27,08,52,21.40
2005,07,27,08,53,21.40
2005,07,27,08,54,21.40
2005,07,27,08,55,21.40
2005,07,27,08,56,21.40
2005,07,27,08,57,21.40
2005,07,27,08,58,21.50
2005,07,27,08,59,21.60
2005,07,27,09,00,21.60
2005,07,27,09,01,21.60
2005,07,27,09,02,21.60
2005,07,27,09,03,21.60
2005,07,27,09,04,21.60
2005,07,27,09,05,21.60
2005,07,27,09,06,21.60
2005,07,27,09,07,21.60
2005,07,27,09,08,21.60
2005,07,27,09,09,21.60
2005,07,27,09,10,21.70
2005,07,27,09,11,21.70
2005,07,27,09,12,21.80
2005,07,27,09,13,21.80
2005,07,27,09,14,21.80
2005,07,27,09,15,21.80
2005,07,27,09,16,21.80
2005,07,27,09,17,21.80
2005,07,27,09,18,21.90
2005,07,27,09,19,21.90
2005,07,27,09,20,22.00
2005,07,27,09,21,22.00
2005,07,27,09,22,22.00
2005,07,27,09,23,22.00
2005,07,27,09,24,22.00
2005,07,27,09,25,22.00
2005,07,27,09,26,22.00
2005,07,27,09,27,22.00
2005,07,27,09,28,22.00
2005,07,27,09,29,22.00
2005,07,27,09,30,21.90
2005,07,27,09,31,21.90
2005,07,27,09,32,21.90
2005,07,27,09,33,21.90
2005,07,27,09,34,21.90
2005,07,27,09,35,21.90
2005,07,27,09,36,21.90
2005,07,27,09,37,21.90
2005,07,27,09,38,21.90
2005,07,27,09,39,22.00
2005,07,27,09,40,22.00
2005,07,27,09,41,22.10
2005,07,27,09,42,22.10
2005,07,27,09,43,22.10
2005,07,27,09,44,22.10
2005,07,27,09,45,22.20
2005,07,27,09,46,22.20
2005,07,27,09,47,22.20
2005,07,27,09,48,22.30
2005,07,27,09,49,22.30
2005,07,27,09,50,22.40
2005,07,27,09,51,22.40
2005,07,27,09,52,22.40
2005,07,27,09,53,22.40
2005,07,27,09,54,22.40
2005,07,27,09,55,22.30
2005,07,27,09,56,22.30
2005,07,27,09,57,22.40
2005,07,27,09,58,22.40
2005,07,27,09,59,22.40
2005,07,27,10,00,22.40
2005,07,27,10,01,22.30
2005,07,27,10,02,22.30
2005,07,27,10,03,22.30
2005,07,27,10,04,22.30
2005,07,27,10,05,22.20
2005,07,27,10,06,22.20
2005,07,27,10,07,22.20
2005,07,27,10,08,22.20
2005,07,27,10,09,22.30
2005,07,27,10,10,22.40
2005,07,27,10,11,22.50
2005,07,27,10,12,22.50
2005,07,27,10,13,22.60
2005,07,27,10,14,22.60
2005,07,27,10,15,22.60
2005,07,27,10,16,22.70
2005,07,27,10,17,22.70
2005,07,27,10,18,22.80
2005,07,27,10,19,22.70
2005,07,27,10,20,22.70
2005,07,27,10,21,22.70
2005,07,27,10,22,22.70
2005,07,27,10,23,22.70
2005,07,27,10,24,22.80
2005,07,27,10,25,22.80
2005,07,27,10,26,22.90
2005,07,27,10,27,22.90
2005,07,27,10,28,22.90
2005,07,27,10,29,22.90
2005,07,27,10,30,22.80
2005,07,27,10,31,22.70
2005,07,27,10,32,22.70
2005,07,27,10,33,22.60
2005,07,27,10,34,22.60
2005,07,27,10,35,22.60
2005,07,27,10,36,22.60
2005,07,27,10,37,22.60
2005,07,27,10,38,22.70
2005,07,27,10,39,22.70
2005,07,27,10,40,22.80
2005,07,27,10,41,22.80
2005,07,27,10,42,22.80
2005,07,27,10,43,22.90
2005,07,27,10,44,22.90
2005,07,27,10,45,22.80
2005,07,27,10,46,22.80
2005,07,27,10,47,22.80
2005,07,27,10,48,22.80
2005,07,27,10,49,22.80
2005,07,27,10,50,22.90
2005,07,27,10,51,22.90
2005,07,27,10,52,22.90
2005,07,27,10,53,22.90
2005,07,27,10,54,22.90
2005,07,27,10,55,23.00
2005,07,27,10,56,23.10
2005,07,27,10,57,23.20
2005,07,27,10,58,23.20
2005,07,27,10,59,23.30
2005,07,27,11,00,23.30
2005,07,27,11,01,23.30
2005,07,27,11,02,23.30
2005,07,27,11,03,23.30
2005,07,27,11,04,23.30
2005,07,27,11,05,23.30
2005,07,27,11,06,23.30
2005,07,27,11,07,23.40
2005,07,27,11,08,23.50
2005,07,27,11,09,23.60
2005,07,27,11,10,23.70
2005,07,27,11,11,23.70
2005,07,27,11,12,23.70
2005,07,27,11,13,23.80
2005,07,27,11,14,23.80
2005,07,27,11,15,23.70
2005,07,27,11,16,23.70
2005,07,27,11,17,23.70
2005,07,27,11,18,23.70
2005,07,27,11,19,23.70
2005,07,27,11,20,23.70
2005,07,27,11,21,23.70
2005,07,27,11,22,23.70
2005,07,27,11,23,23.70
2005,07,27,11,24,23.70
2005,07,27,11,25,23.70
2005,07,27,11,26,23.70
2005,07,27,11,27,23.70
2005,07,27,11,28,23.70
2005,07,27,11,29,23.70
2005,07,27,11,30,23.70
2005,07,27,11,31,23.70
2005,07,27,11,32,23.70
2005,07,27,11,33,23.70
2005,07,27,11,34,23.70
2005,07,27,11,35,23.70
2005,07,27,11,36,23.70
2005,07,27,11,37,23.80
2005,07,27,11,38,23.90
2005,07,27,11,39,24.00
2005,07,27,11,40,24.10
2005,07,27,11,41,24.20
2005,07,27,11,42,24.30
2005,07,27,11,43,24.30
2005,07,27,11,44,24.40
2005,07,27,11,45,24.50
2005,07,27,11,46,24.60
2005,07,27,11,47,24.60
2005,07,27,11,48,24.70
2005,07,27,11,49,24.70
2005,07,27,11,50,24.70
2005,07,27,11,51,24.70
2005,07,27,11,52,24.70
2005,07,27,11,53,24.70
2005,07,27,11,54,24.60
2005,07,27,11,55,24.50
2005,07,27,11,56,24.40
2005,07,27,11,57,24.40
2005,07,27,11,58,24.40
2005,07,27,11,59,24.30
2005,07,27,12,00,24.30
2005,07,27,12,01,24.30
2005,07,27,12,02,24.30
2005,07,27,12,03,24.40
2005,07,27,12,04,24.50
2005,07,27,12,05,24.50
2005,07,27,12,06,24.50
2005,07,27,12,07,24.60
2005,07,27,12,08,24.70
2005,07,27,12,09,24.70
2005,07,27,12,10,24.70
2005,07,27,12,11,24.70
2005,07,27,12,12,24.80
2005,07,27,12,13,24.90
2005,07,27,12,14,24.90
2005,07,27,12,15,25.00
2005,07,27,12,16,25.00
2005,07,27,12,17,25.00
2005,07,27,12,18,25.10
2005,07,27,12,19,25.10
2005,07,27,12,20,25.10
2005,07,27,12,21,25.10
2005,07,27,12,22,25.00
2005,07,27,12,23,24.90
2005,07,27,12,24,24.80
2005,07,27,12,25,24.80
2005,07,27,12,26,24.70
2005,07,27,12,27,24.70
2005,07,27,12,28,24.70
2005,07,27,12,29,24.70
2005,07,27,12,30,24.70
2005,07,27,12,31,24.80
2005,07,27,12,32,24.80
2005,07,27,12,33,24.80
2005,07,27,12,34,24.80
2005,07,27,12,35,24.90
2005,07,27,12,36,24.90
2005,07,27,12,37,24.90
2005,07,27,12,38,24.80
2005,07,27,12,39,24.80
2005,07,27,12,40,24.60
2005,07,27,12,41,24.50
2005,07,27,12,42,24.50
2005,07,27,12,43,24.40
2005,07,27,12,44,24.40
2005,07,27,12,45,24.30
2005,07,27,12,46,24.30
2005,07,27,12,47,24.30
2005,07,27,12,48,24.30
2005,07,27,12,49,24.40
2005,07,27,12,50,24.40
2005,07,27,12,51,24.40
2005,07,27,12,52,24.40
2005,07,27,12,53,24.40
2005,07,27,12,54,24.40
2005,07,27,12,55,24.40
2005,07,27,12,56,24.50
2005,07,27,12,57,24.60
2005,07,27,12,58,24.70
2005,07,27,12,59,24.80
2005,07,27,13,00,24.90
2005,07,27,13,01,25.00
2005,07,27,13,02,24.90
2005,07,27,13,03,24.90
2005,07,27,13,04,24.80
2005,07,27,13,05,24.80
2005,07,27,13,06,24.70
2005,07,27,13,07,24.70
2005,07,27,13,08,24.70
2005,07,27,13,09,24.70
2005,07,27,13,10,24.80
2005,07,27,13,11,24.80
2005,07,27,13,12,24.90
2005,07,27,13,13,25.00
2005,07,27,13,14,25.20
2005,07,27,13,15,25.30
2005,07,27,13,16,25.40
2005,07,27,13,17,25.50
2005,07,27,13,18,25.60
2005,07,27,13,19,25.70
2005,07,27,13,20,25.70
2005,07,27,13,21,25.80
2005,07,27,13,22,25.80
2005,07,27,13,23,25.80
2005,07,27,13,24,25.80
2005,07,27,13,25,25.70
2005,07,27,13,26,25.70
2005,07,27,13,27,25.70
2005,07,27,13,28,25.80
2005,07,27,13,29,25.80
2005,07,27,13,30,25.80
2005,07,27,13,31,25.90
2005,07,27,13,32,25.90
2005,07,27,13,33,25.90
2005,07,27,13,34,25.80
2005,07,27,13,35,25.80
2005,07,27,13,36,25.80
2005,07,27,13,37,25.70
2005,07,27,13,38,25.60
2005,07,27,13,39,25.60
2005,07,27,13,40,25.60
2005,07,27,13,41,25.70
2005,07,27,13,42,25.70
2005,07,27,13,43,25.80
2005,07,27,13,44,25.80
2005,07,27,13,45,25.80
2005,07,27,13,46,25.80
2005,07,27,13,47,25.80
2005,07,27,13,48,25.90
2005,07,27,13,49,25.90
2005,07,27,13,50,25.80
2005,07,27,13,51,25.70
2005,07,27,13,52,25.70
2005,07,27,13,53,25.70
2005,07,27,13,54,25.60
2005,07,27,13,55,25.60
2005,07,27,13,56,25.60
2005,07,27,13,57,25.60
2005,07,27,13,58,25.60
2005,07,27,13,59,25.60
2005,07,27,14,00,25.60
2005,07,27,14,01,25.60
2005,07,27,14,02,25.60
2005,07,27,14,03,25.50
2005,07,27,14,04,25.60
2005,07,27,14,05,25.60
2005,07,27,14,06,25.70
2005,07,27,14,07,25.70
2005,07,27,14,08,25.80
2005,07,27,14,09,25.90
2005,07,27,14,10,25.90
2005,07,27,14,11,26.00
2005,07,27,14,12,26.00
2005,07,27,14,13,26.10
2005,07,27,14,14,26.10
2005,07,27,14,15,26.20
2005,07,27,14,16,26.20
2005,07,27,14,17,26.20
2005,07,27,14,18,26.30
2005,07,27,14,19,26.40
2005,07,27,14,20,26.50
2005,07,27,14,21,26.60
2005,07,27,14,22,26.70
2005,07,27,14,23,26.70
2005,07,27,14,24,26.80
2005,07,27,14,25,26.80
2005,07,27,14,26,26.90
2005,07,27,14,27,26.90
2005,07,27,14,28,27.00
2005,07,27,14,29,27.10
2005,07,27,14,30,27.10
2005,07,27,14,31,27.10
2005,07,27,14,32,27.10
2005,07,27,14,33,27.10
2005,07,27,14,34,27.20
2005,07,27,14,35,27.20
2005,07,27,14,36,27.20
2005,07,27,14,37,27.20
2005,07,27,14,38,27.20
2005,07,27,14,39,27.10
2005,07,27,14,40,27.20
2005,07,27,14,41,27.20
2005,07,27,14,42,27.20
2005,07,27,14,43,27.30
2005,07,27,14,44,27.30
2005,07,27,14,45,27.20
2005,07,27,14,46,27.20
2005,07,27,14,47,27.10
2005,07,27,14,48,27.10
2005,07,27,14,49,27.10
2005,07,27,14,50,27.10
2005,07,27,14,51,27.10
2005,07,27,14,52,27.10
2005,07,27,14,53,27.10
2005,07,27,14,54,27.10
2005,07,27,14,55,27.10
2005,07,27,14,56,27.00
2005,07,27,14,57,26.90
2005,07,27,14,58,26.80
2005,07,27,14,59,26.80
2005,07,27,15,00,26.80
2005,07,27,15,01,26.80
2005,07,27,15,02,26.80
2005,07,27,15,03,26.80
2005,07,27,15,04,26.80
2005,07,27,15,05,26.80
2005,07,27,15,06,26.90
2005,07,27,15,07,26.90
2005,07,27,15,08,27.00
2005,07,27,15,09,27.10
2005,07,27,15,10,27.20
2005,07,27,15,11,27.20
2005,07,27,15,12,27.20
2005,07,27,15,13,27.20
2005,07,27,15,14,27.20
2005,07,27,15,15,27.20
2005,07,27,15,16,27.20
2005,07,27,15,17,27.20
2005,07,27,15,18,27.20
2005,07,27,15,19,27.20
2005,07,27,15,20,27.20
2005,07,27,15,21,27.20
2005,07,27,15,22,27.30
2005,07,27,15,23,27.30
2005,07,27,15,24,27.30
2005,07,27,15,25,27.40
2005,07,27,15,26,27.60
2005,07,27,15,27,27.70
2005,07,27,15,28,27.70
2005,07,27,15,29,27.70
2005,07,27,15,30,27.70
2005,07,27,15,31,27.70
2005,07,27,15,32,27.70
2005,07,27,15,33,27.70
2005,07,27,15,34,27.80
2005,07,27,15,35,27.80
2005,07,27,15,36,27.90
2005,07,27,15,37,27.90
2005,07,27,15,38,28.00
2005,07,27,15,39,28.20
2005,07,27,15,40,28.20
2005,07,27,15,41,28.30
2005,07,27,15,42,28.40
2005,07,27,15,43,28.40
2005,07,27,15,44,28.50
2005,07,27,15,45,28.60
2005,07,27,15,46,28.40
2005,07,27,15,47,28.30
2005,07,27,15,48,28.20
2005,07,27,15,49,28.10
2005,07,27,15,50,28.00
2005,07,27,15,51,28.00
2005,07,27,15,52,28.00
2005,07,27,15,53,28.10
2005,07,27,15,54,28.10
2005,07,27,15,55,27.90
2005,07,27,15,56,27.80
2005,07,27,15,57,27.80
2005,07,27,15,58,27.80
2005,07,27,15,59,27.70
2005,07,27,16,00,27.60
2005,07,27,16,01,27.40
2005,07,27,16,02,27.40
2005,07,27,16,03,27.40
2005,07,27,16,04,27.60
2005,07,27,16,05,27.60
2005,07,27,16,06,27.60
2005,07,27,16,07,27.60
2005,07,27,16,08,27.70
2005,07,27,16,09,27.80
2005,07,27,16,10,27.90
2005,07,27,16,11,27.80
2005,07,27,16,12,27.70
2005,07,27,16,13,27.60
2005,07,27,16,14,27.50
2005,07,27,16,15,27.40
2005,07,27,16,16,27.40
2005,07,27,16,17,27.40
2005,07,27,16,18,27.50
2005,07,27,16,19,27.60
2005,07,27,16,20,27.60
2005,07,27,16,21,27.70
2005,07,27,16,22,27.70
2005,07,27,16,23,27.90
2005,07,27,16,24,27.90
2005,07,27,16,25,27.90
2005,07,27,16,26,27.90
2005,07,27,16,27,27.80
2005,07,27,16,28,27.90
2005,07,27,16,29,28.00
2005,07,27,16,30,28.00
2005,07,27,16,31,28.00
2005,07,27,16,32,28.10
2005,07,27,16,33,28.10
2005,07,27,16,34,28.00
2005,07,27,16,35,27.90
2005,07,27,16,36,27.90
2005,07,27,16,37,27.90
2005,07,27,16,38,27.90
2005,07,27,16,39,27.90
2005,07,27,16,40,27.80
2005,07,27,16,41,27.80
2005,07,27,16,42,27.70
2005,07,27,16,43,27.70
2005,07,27,16,44,27.70
2005,07,27,16,45,27.70
2005,07,27,16,46,27.80
2005,07,27,16,47,27.90
2005,07,27,16,48,28.10
2005,07,27,16,49,28.10
2005,07,27,16,50,28.00
2005,07,27,16,51,28.00
2005,07,27,16,52,28.00
2005,07,27,16,53,28.00
2005,07,27,16,54,28.00
2005,07,27,16,55,27.90
2005,07,27,16,56,27.90
2005,07,27,16,57,27.90
2005,07,27,16,58,27.90
2005,07,27,16,59,27.90
2005,07,27,17,00,27.80
2005,07,27,17,01,27.80
2005,07,27,17,02,27.90
2005,07,27,17,03,27.90
2005,07,27,17,04,27.70
2005,07,27,17,05,27.60
2005,07,27,17,06,27.40
2005,07,27,17,07,27.30
2005,07,27,17,08,27.30
2005,07,27,17,09,27.30
2005,07,27,17,10,27.30
2005,07,27,17,11,27.30
2005,07,27,17,12,27.30
2005,07,27,17,13,27.40
2005,07,27,17,14,27.40
2005,07,27,17,15,27.40
2005,07,27,17,16,27.40
2005,07,27,17,17,27.30
2005,07,27,17,18,27.30
2005,07,27,17,19,27.30